User: anonymous   Login
Location: Newark
(35.8833°N, 14.5000°E)
Time: 04:02:44
(UTC+00:00)
Language:

PCSat - Orbit

View from above orbital plane
View from above orbital plane
View from above satellite
View from above satellite

Ground track
Ground track

The orbit data is extracted from the following two-line orbital elements,

1 26931U 01043C   19145.24041133 -.00000042  00000-0  15542-4 0  9995
2 26931  67.0524  66.7759 0006412 279.9531  80.0846 14.30542491921478
Epoch (UTC): 25 May 2019 05:46:11
Eccentricity: 0.0006412
inclination: 67.0524°
perigee height: 785 km
apogee height: 794 km
right ascension of ascending node: 66.7759°
argument of perigee: 279.9531°
revolutions per day: 14.30542491
mean anomaly at epoch: 80.0846°
orbit number at epoch: 92147

The dashed part of the orbit path shows where the satellite is in the earth's shadow,  

DLR